User: anonymous   Login
Location: Asheville, NC
(35.6000°N, 82.5500°W)
Time: 07:52:19
(UTC-05:00)
Language:

AAUSAT CUBESAT 2 - Orbit

View from above orbital plane
View from above orbital plane
View from above satellite
View from above satellite

Ground track
Ground track

The orbit data is extracted from the following two-line orbital elements,

1 32788U 08021F   17326.63430318  .00001173  00000-0  11470-3 0  9994
2 32788  97.5434 356.5316 0010902 326.6681  33.3852 14.94117255519339
Epoch (UTC): 22 November 2017 15:13:23
Eccentricity: 0.0010902
inclination: 97.5434°
perigee height: 577 km
apogee height: 593 km
right ascension of ascending node: 356.5316°
argument of perigee: 326.6681°
revolutions per day: 14.94117255
mean anomaly at epoch: 33.3852°
orbit number at epoch: 51933

The dashed part of the orbit path shows where the satellite is in the earth's shadow,  

DLR